Regional Weather Roundup
Issued by NWS

Home | Current Version | Previous Version | Graphics & Text | Print | Product List | Glossary On
Versions: 1 2 3 4 5 6 7 8 9 10 11 12 13 14 15 16 17 18 19 20 21 22 23 24 25 26 27 28 29 30 31 32 33 34 35 36 37 38 39 40 41 42 43 44 45 46 47 48 49 50
418
ASUS45 KPSR 162310
RWRAZ

ARIZONA HOURLY REGIONAL WEATHER ROUNDUP
NATIONAL WEATHER SERVICE PHOENIX AZ
400 PM MST WED AUG 16 2017

NOTE: FAIR INDICATES FEW OR NO CLOUDS BELOW 12,000 FEET WITH NO
SIGNIFICANT WEATHER AND/OR OBSTRUCTIONS TO VISIBILITY.

AZZ001>003-036-170000-
NORTHWEST ARIZONA

CITY           SKY/WX    TMP DP  RH WIND       PRES   REMARKS
BULLHEAD CITY  SUNNY    100  32   9 S8G15     29.78F
KINGMAN        SUNNY     91  40  16 W10       29.98F
$$

AZZ004>008-015-016-018-170000-
NORTH CENTRAL ARIZONA

CITY           SKY/WX    TMP DP  RH WIND       PRES   REMARKS
GRAND CANYON   MOSUNNY   77  31  18 W14G21    30.22F
WILLIAMS       SUNNY     75  36  23 SW12G18   30.23S
PRESCOTT       SUNNY     82  38  20 SE12      30.10F
FLAGSTAFF      SUNNY     72  34  24 SW10G16   30.26S
PAYSON           N/A     84  34  16 VRB5G18   30.14S
PAGE           SUNNY     90  28  11 MISG      30.01F
$$

AZZ009>014-017-170000-
NORTHEAST ARIZONA

CITY           SKY/WX    TMP DP  RH WIND       PRES   REMARKS
WINSLOW        SUNNY     88  33  14 VRB3G16   30.08F
SAINT JOHNS    SUNNY     84  33  16 W15G22    30.14F
WINDOW ROCK    SUNNY     81  31  16 W13       30.21F
SHOW LOW       SUNNY     77  32  19 W5G23     30.22S
$$

AZZ540-542>544-546-548-170000-
GREATER PHOENIX AREA

CITY           SKY/WX    TMP DP  RH WIND       PRES   REMARKS
PHOENIX        SUNNY    101  40  12 S10       29.80F
BUCKEYE        SUNNY    100  41  13 S7        29.82F
GLENDALE       SUNNY    100  45  15 E5        29.83F
LUKE AFB       SUNNY     99  45  15 N5        29.80F
DEER VALLEY    SUNNY     99  39  12 VRB3      29.84F
SCOTTSDALE     SUNNY     99  35  10 S9        29.86F
MESA-FALCON    SUNNY    100  45  15 S14       29.84F
MESA-GATEWAY   SUNNY     99  43  14 SW10      29.85F
CHANDLER       SUNNY    100  37  11 S8        29.83F
$$

AZZ539-553-170000-
SOUTHWEST MARICOPA COUNTY AND PINAL COUNTY

CITY           SKY/WX    TMP DP  RH WIND       PRES   REMARKS
CASA GRANDE    SUNNY    101  37  11 S16       29.84F
GILA BEND      SUNNY    103  36  10 SW9       29.78F
$$

AZZ503-504-507>509-170000-
SOUTHEAST ARIZONA

CITY           SKY/WX    TMP DP  RH WIND       PRES   REMARKS
TUCSON         NOT AVBL
DAVIS-MONTHAN  SUNNY     99  45  15 W8        29.94F
NOGALES        SUNNY     89  49  25 W10       30.06F
SIERRA VISTA   SUNNY     87  43  21 CALM      30.12S
DOUGLAS        SUNNY     87  42  20 W5        30.07F
SAFFORD        SUNNY     93  42  17 VRB3      29.96F
$$

AZZ532-170000-
SOUTHWEST ARIZONA

CITY           SKY/WX    TMP DP  RH WIND       PRES   REMARKS
YUMA           SUNNY    102  41  12 W10G16    29.76
$$

CAZ041-043-047-048-061-525>527-560>570-170000-
SOUTHERN CALIFORNIA

CITY           SKY/WX    TMP DP  RH WIND       PRES   REMARKS
DOWNTOWN L.A.  SUNNY     76  61  59 VRB5      29.93F
L.A. AIRPORT   MOSUNNY   72  61  68 W15       29.94F
SAN DIEGO      MOSUNNY   74  60  61 W13       29.96S
BURBANK        SUNNY     79  58  48 VRB7      29.92F
ONTARIO        MOSUNNY   83  54  36 W10       29.92F
RIVERSIDE      SUNNY     85  55  35 W14       29.91F
PALM SPRINGS   SUNNY    100  41  13 NW18      29.79F
IMPERIAL       SUNNY    102  39  11 VRB5      29.74F
BLYTHE         SUNNY    101  27   7 S14       29.77F
NEEDLES        SUNNY    103  26   6 S10       29.79F
$$

NVZ020-UTZ003-170000-
SOUTHERN NEVADA-UTAH

CITY           SKY/WX    TMP DP  RH WIND       PRES   REMARKS
LAS VEGAS      MOSUNNY   97  38  13 E8        29.87F
SALT LAKE CITY PTSUNNY   89  35  14 N8        30.02F
$$

NMZ009-TXZ055-170000-
NEW MEXICO-WEST TEXAS

CITY           SKY/WX    TMP DP  RH WIND       PRES   REMARKS
ALBUQUERQUE    MOSUNNY   87  31  13 W14       30.09F
EL PASO        MOSUNNY   93  46  19 W6        30.01F
$$


........................KEY........................
SKY/WX - SKY CONDITION/WEATHER
TMP    - TEMPERATURE IN FAHRENHEIT
DP     - DEW POINT IN FAHRENHEIT
RH     - RELATIVE HUMIDITY IN PERCENT
WIND   - DIRECTION AND SPEED IN MILES PER HOUR (MPH)
VRB    - VARIABLE WIND DIRECTION
PRES   - MEAN SEA LEVEL PRESSURE IN INCHES OF MERCURY
         F - FALLING PRESSURE   R - RISING PRESSURE
         S - STEADY PRESSURE
VSB    - VISIBILITY IN MILES
HX     - HEAT INDEX IN FAHRENHEIT
WCI    - WIND CHILL INDEX IN FAHRENHEIT
TC     - TEMPERATURE IN CELSIUS WHICH IS ALSO KNOWN AS
         TEMPERATURE IN CENTIGRADE
AFB    - AIR FORCE BASE
         LUKE AFB IS LUKE AIR FORCE BASE
         DAVIS-MONTHAN IS DAVIS-MONTHAN AIR FORCE BASE
NAS    - NAVAL AIR STATION
         EL CENTRO NAS IS EL CENTRO NAVAL AIR STATION
N/A    - NOT AVAILABLE





USA.gov is the U.S. government's official web portal to all federal, state and local government web resources and services.